Jaipur, India

3:24 AM IST on May 27, 2017 (GMT +0530)
Jaipur

Weather History for VIJP - November, 2013

Change the Weather History Date:

Friday, November 1, 2013

  Actual Average Record
Temperature  
Mean Temperature 78 °F -  
Max Temperature 91 °F - - ()
Min Temperature 65 °F - - ()
Cooling Degree Days 13    
Growing Degree Days 28 (Base 50)    
Moisture  
Dew Point 54 °F    
Average Humidity 43    
Maximum Humidity 73    
Minimum Humidity 19    
Precipitation  
Precipitation 0.00 in - - ()
Sea Level Pressure  
Sea Level Pressure 29.96 in    
Wind  
Wind Speed 3 mph ()    
Max Wind Speed 12 mph    
Max Gust Speed -    
Visibility 1.6 miles    
Events      
T = Trace of Precipitation, MM = Missing Value Source: Averaged Metar Reports

Daily Weather History Graph

Daily Weather History Graph

Search for Another Location

Airport or City:

Trip Planner

Search our weather history database for the weather conditions in past years. The results will help you decide how hot, cold, wet, or windy it might be!

Date:

Astronomy

Nov. 01, 2013 Rise Set
Actual Time 6:36 AM IST 5:44 PM IST
Civil Twilight 6:12 AM IST 6:07 PM IST
Nautical Twilight 5:44 AM IST 6:35 PM IST
Astronomical Twilight 5:17 AM IST 7:02 PM IST
Moon 4:12 AM IST (11/1) 4:10 PM IST (11/1)
Length of Visible Light 11h 55m
Length of Day
11h 07m
Waning Crescent, 6% of the Moon is Illuminated
Nov 1
Waning Crescent
Nov 3
New
Nov 10
First Quarter
Nov 17
Full
Nov 26
Last Quarter

Hourly Weather History & Observations

Time (IST) Temp. Heat Index Dew Point Humidity Pressure Visibility Wind Dir Wind Speed Gust Speed Precip Events Conditions
12:00 AM 71.6 °F - 57.2 °F 60% 29.98 in 1.2 mi Calm Calm - N/A   Smoke
1:00 AM 71.6 °F - 55.4 °F 57% 29.98 in 1.2 mi Calm Calm - N/A   Smoke
2:00 AM 69.8 °F - 57.2 °F 64% 29.98 in 1.2 mi Calm Calm - N/A   Smoke
2:30 AM 70 °F - 56 °F 53% 29.91 in 1 mi Calm Calm - -   Smoke
3:00 AM 69.8 °F - 57.2 °F 64% 29.95 in 1.2 mi Calm Calm - N/A   Smoke
4:00 AM 66.2 °F - 55.4 °F 68% 29.95 in 1.2 mi East 5.8 mph - N/A   Smoke
5:00 AM 68.0 °F - 55.4 °F 64% 29.95 in 1.2 mi Calm Calm - N/A   Smoke
5:30 AM 67 °F - 56 °F 59% 29.94 in 1 mi Calm Calm - -   Smoke
6:00 AM 66.2 °F - 57.2 °F 73% 29.98 in 1.2 mi Calm Calm - N/A   Smoke
7:00 AM 68.0 °F - 57.2 °F 68% 30.01 in 1.2 mi Calm Calm - N/A   Smoke
8:00 AM 73.4 °F - 59.0 °F 61% 30.04 in 1.6 mi Calm Calm - N/A   Smoke
8:30 AM 77 °F - 60 °F 47% 29.96 in 1 mi Calm Calm - -   Smoke
9:00 AM 82.4 °F 82.5 °F 59.0 °F 45% 30.04 in 1.6 mi Calm Calm - N/A   Smoke
10:00 AM 82.4 °F 82.0 °F 57.2 °F 42% 30.04 in 1.9 mi WNW 5.8 mph - N/A   Smoke
11:00 AM 86.0 °F 84.5 °F 55.4 °F 35% 30.04 in 1.9 mi WSW 9.2 mph - N/A   Haze
12:00 PM 87.8 °F 85.7 °F 53.6 °F 31% 30.01 in 2.5 mi West 10.4 mph - N/A   Haze
1:00 PM 87.8 °F 85.7 °F 53.6 °F 31% 29.98 in 2.5 mi West 9.2 mph - N/A   Haze
2:00 PM 87.8 °F - 51.8 °F 29% 29.95 in 2.5 mi West 10.4 mph - N/A   Haze
2:30 PM 89 °F - 52 °F 19% 29.87 in 2 mi West 11.5 mph - -   Haze
3:00 PM 87.8 °F 85.7 °F 53.6 °F 31% 29.95 in 2.5 mi Variable 6.9 mph - N/A   Haze
4:00 PM 87.8 °F 85.7 °F 53.6 °F 31% 29.92 in 2.2 mi West 9.2 mph - N/A   Haze
4:30 PM 86.0 °F - 51.8 °F 31% 29.92 in 2.2 mi NW 8.1 mph - N/A   Haze
4:33 PM 86.0 °F 84.2 °F 53.6 °F 33% 29.92 in 2.2 mi NW 8.1 mph - N/A   Haze
5:30 PM 84 °F - 55 °F 26% 29.86 in 1 mi WNW 6.9 mph - -   Haze
5:30 PM 84.2 °F 82.8 °F 53.6 °F 35% 29.92 in 2.2 mi NW 6.9 mph - N/A   Haze
7:00 PM 80.6 °F 80.3 °F 53.6 °F 39% 29.95 in 1.9 mi NW 3.5 mph - N/A   Haze
8:00 PM 80.6 °F - 50.0 °F 34% 29.98 in 1.6 mi Variable 5.8 mph - N/A   Smoke
8:30 PM 80 °F - 48 °F 22% 29.91 in 1 mi NNW 4.6 mph - -   Smoke
8:30 PM 80.6 °F - 48.2 °F 32% 29.98 in 1.6 mi NNW 4.6 mph - N/A   Smoke
9:00 PM 78.8 °F - 46.4 °F 32% 29.98 in 1.6 mi Variable 6.9 mph - N/A   Smoke
10:00 PM 77.0 °F - 46.4 °F 34% 30.01 in 1.6 mi Variable 5.8 mph - N/A   Smoke
11:00 PM 77.0 °F - 44.6 °F 32% 30.01 in 1.6 mi Variable 3.5 mph - N/A   Smoke
11:30 PM 76 °F - 48 °F 26% 29.93 in 1 mi 4.6 mph - -   Smoke